STARLINK-4102

operational
NORAD ID: 53143 Int'l Des: 2022-083 Owner: SPXS Country: US Constellation: starlink
LEOCIRCULAR

About STARLINK-4102

Description loading...

Live Position

Loading 3D Globe...

Upcoming Passes

Altitude History

Altitude vs Time

uPlot chart will show altitude changes over time

Two-Line Element Set

1 53143U 22083M 25251.48135331 -.00000590 00000-0 -19001-4 0 9995
2 53143 53.2175 272.0871 0001357 93.1396 266.9751 15.08835135173719
Epoch: Sep 8, 2025 • Age: 16 hours

Current Status

Altitude 556.7 km
Velocity 7.58 km/s
Sub-Earth Point -46.94°S, 179.39°W
Launch Date Jul 17, 2022
Age 3.1 years
Type internet

Technical Details

Classification Payload
Mass 297.00 kg
Dry Mass 275.00 kg
Total Mass 297.00 kg
Length 0.20 m
Diameter 2.80 m
Span 9.00 m
Shape Box + pan
Manufacturer SPXS
Bus Type Starlink
Phase Status In Orbit
Owner/State SPXS/US

Large Constellations

Loading constellations...